Overview Statistics Trail Chart Weather Telemetry Raw packets
 

This is the latest recevied weather packets stored in our database for station/object DG6YGE-6. If no packets are shown the sender has not sent any weather packets the latest 10 day(s).

<< 48 49 50 51 52 53 54 >>
Time Temp. Humidity Pressure Rain* Wind** Luminosity Snow
1787918349 20° C 95% 1006.8 hPa 0.25 mm - 110 W/m² -
1787917749 20° C 95% 1006.8 hPa 0.25 mm - 70 W/m² -
1787917149 20° C 95% 1006.6 hPa 0.25 mm - 87 W/m² -
1787916549 20° C 95% 1006.7 hPa 0.25 mm - 129 W/m² -
1787915949 20° C 95% 1006.8 hPa 0.25 mm - 149 W/m² -
1787915352 20° C 95% 1006.8 hPa 0 mm - 159 W/m² -
1787914752 20° C 95% 1007 hPa 0 mm - 157 W/m² -
1787914152 20° C 95% 1007 hPa 0 mm - 107 W/m² -
1787913552 20° C 95% 1006.9 hPa 0 mm - 78 W/m² -
1787912952 20° C 95% 1006.8 hPa 0 mm - 36 W/m² -
1787912352 20° C 95% 1006.7 hPa 0 mm - 73 W/m² -
1787911752 20° C 95% 1006.1 hPa 0 mm - 121 W/m² -
1787911152 20° C 95% 1006.1 hPa 0.25 mm - 87 W/m² -
1787910552 20° C 95% 1005.8 hPa 0.25 mm - 191 W/m² -
1787909952 20° C 95% 1006.1 hPa 0.51 mm - 171 W/m² -
1787909353 20° C 95% 1006.3 hPa 0.51 mm - 129 W/m² -
1787908752 20° C 95% 1006.5 hPa 0.51 mm - 234 W/m² -
1787908152 20° C 95% 1006.7 hPa 0.51 mm - 167 W/m² -
1787907552 20° C 95% 1007.2 hPa 0.25 mm - 71 W/m² -
1787906953 20° C 95% 1007.3 hPa 0.25 mm - 45 W/m² -
1787906352 20° C 95% 1006.9 hPa 0 mm - 40 W/m² -
1787905752 20° C 95% 1006.7 hPa 0 mm - 32 W/m² -
1787905152 20.56° C 90% 1006.5 hPa 0 mm - 37 W/m² -
1787904552 20.56° C 90% 1005.9 hPa 0 mm - 68 W/m² -
1787903952 20.56° C 90% 1006.1 hPa 0 mm - 80 W/m² -

* Rain latest hour (hover to see other rain measurements)
** Current wind speed in m/s (hover to see current wind gust speed)